AirNav   Duncan Aviation - Near you to keep you flying
 
 616 users online  

M95 Richard Arthur Field Airport
Fayette, Alabama, USA

GOING TO FAYETTE?


FAA INFORMATION EFFECTIVE 18 MAY 2023

Location

FAA Identifier: M95
Lat/Long: 33-42-32.7810N 087-48-54.7510W
33-42.546350N 087-48.912517W
33.7091058,-87.8152086
(estimated)
Elevation: 357.4 ft. / 108.9 m (surveyed)
Variation: 03W (2020)
From city: 3 miles NE of FAYETTE, AL
Time zone: UTC -5 (UTC -6 during Standard Time)
Zip code: 35555

Airport Operations

Airport use: Open to the public
Activation date: 10/1946
Control tower: no
ARTCC: MEMPHIS CENTER
FSS: ANNISTON FLIGHT SERVICE STATION
NOTAMs facility: ANB (NOTAM-D service available)
Attendance: MON-FRI 0900-1300
Wind indicator: lighted
Segmented circle: yes
Lights: ACTVT PAPI RWY 01 & 19; MIRL RWY 01/19; TWY LGTS - CTAF.
Beacon: white-green (lighted land airport)
Operates sunset to sunrise.

Airport Communications

CTAF/UNICOM: 122.8
COLUMBUS APPROACH: 126.075
COLUMBUS DEPARTURE: 126.075
  • APCH/DEP SVC PRVDD BY MEMPHIS ARTCC ON FREQS 127.1/269.4 (COLUMBUS RCAG) WHEN COLUMBUS APCH CTL CLSD.

Nearby radio navigation aids

VOR radial/distance  VOR name  Freq  Var
CBMr083/31.4CALEDONIA VORTAC115.2000E
IGBr065/37.4BIGBEE VORTAC116.2004E

Airport Services

Fuel available: 100LL JET-A+
Parking: tiedowns
Bottled oxygen: NONE
Bulk oxygen: NONE

Runway Information

Runway 1/19

Dimensions: 5009 x 80 ft. / 1527 x 24 m
Surface: asphalt/grooved, in good condition
Weight bearing capacity: 
PCN 10 /F/C/X/T
Single wheel: 15.0
Runway edge lights: medium intensity
RUNWAY 1  RUNWAY 19
Latitude: 33-42.133813N33-42.958893N
Longitude: 087-48.934883W087-48.890157W
Elevation: 330.9 ft.357.4 ft.
Traffic pattern: leftleft
Runway heading: 006 magnetic, 003 true186 magnetic, 183 true
Markings: nonprecision, in good conditionnonprecision, in good condition
Visual slope indicator: 2-light PAPI on left (3.00 degrees glide path)2-light PAPI on left (3.00 degrees glide path)
Touchdown point: yes, no lightsyes, no lights
Obstructions: 33 ft. trees, 1217 ft. from runway, 187 ft. right of centerline, 30:1 slope to clear85 ft. trees, 1301 ft. from runway, 191 ft. left of centerline, 12:1 slope to clear

Airport Ownership and Management from official FAA records

Ownership: Publicly-owned
Owner: CITY OF FAYETTE
203 TEMPLE AVE NORTH
FAYETTE, AL 35555
Phone 205-932-5367
Manager: KIP MADISON
100 21ST STREET NORTH EAST
FAYETTE, AL 35555
Phone 205-932-3819

Airport Operational Statistics

Aircraft based on the field: 10
Single engine airplanes: 9
Helicopters: 1
    
Aircraft operations: avg 42/day *
85% transient general aviation
15% local general aviation
* for 12-month period ending 31 August 2020

Additional Remarks

TWY LGTS FOR TWY TURNOFF ONLY.
DEER ON & INVOF ARPT.
FOR CD CTC COLUMBUS APCH AT 662-434-3044.

Instrument Procedures

NOTE: All procedures below are presented as PDF files. If you need a reader for these files, you should download the free Adobe Reader.

NOT FOR NAVIGATION. Please procure official charts for flight.
FAA instrument procedures published for use from 18 May 2023 at 0901Z to 15 June 2023 at 0900z.

 
IAPs - Instrument Approach Procedures
RNAV (GPS) RWY 01   download (222KB)
RNAV (GPS) RWY 19   download (185KB)
NOTE: Special Take-Off Minimums/Departure Procedures apply   download (481KB)

Other nearby airports with instrument procedures:

M55 - Lamar County Airport (17 nm NW)
3M8 - North Pickens Airport (22 nm SW)
KHAB - Marion County-Rankin Fite Airport (26 nm N)
KJFX - Walker County Airport-Bevill Field (28 nm NE)
KTCL - Tuscaloosa National Airport (31 nm S)
 
Loc | Ops | Rwys | IFR | FBO | Links
Com | Nav | Svcs | Stats | Notes
Area around M95 (Richard Arthur Field Airport)
 
Road maps at: MapQuest Bing Google
 
Aerial photo
WARNING: Photo may not be current or correct
Aerial photo of M95 (Richard Arthur Field Airport)
Taken late October 2007

Do you have a better or more recent aerial photo of Richard Arthur Field Airport that you would like to share? If so, please send us your photo.

 
Sectional chart

 
Airport distance calculator
Flying to Richard Arthur Field Airport? Find the distance to fly.

From to M95

Sunrise and sunset
Times for 05-Jun-2023
 Local
(UTC-5)
 Zulu
(UTC)
Morning civil twilight05:1310:13
Sunrise05:4210:42
Sunset19:5800:58
Evening civil twilight20:2601:26

Current date and time
Zulu (UTC)  05-Jun-2023 07:13:17
Local (UTC-5)  05-Jun-2023 02:13:17
 
METAR
KJFX 
28nm NE 
050655Z AUTO 00000KT 7SM BKN075 BKN090 BKN120 19/19 A2992 RMK AO2 LTG DSNT S
KTCL 
31nm S 
050653Z AUTO 00000KT 5SM BR CLR 20/19 A2990 RMK AO2 SLP121 T02000189
KCBM 
32nm W 
050655Z 07004KT 10SM CLR 22/17 A2986 RMK AO2A SLPNO ALSTG ESTMD CHINO RWY31C $
KM40 
35nm W 
050655Z AUTO 00000KT 10SM CLR 20/19 A2990 RMK AO2
K1M4 
36nm N 
050656Z AUTO 00000KT 10SM BKN120 19/18 A2994 RMK AO2 SLP121 T01890178
KGTR 
41nm W 
050656Z AUTO 36005KT 10SM CLR 21/17 A2990 RMK AO2 SLP128 T02060172
TAF
KTCL 
31nm S 
050520Z 0506/0606 00000KT 5SM BR SCT150 TEMPO 0508/0512 2SM BR FM051330 VRB04KT P6SM SCT045 SCT150 PROB30 0518/0524 4SM TSRA BR SCT045CB BKN100
KCBM 
32nm W 
042100Z 0421/0521 09006KT 9999 VCSH SCT040 QNH2976INS TEMPO 0421/0501 VCTS BKN040CB BECMG 0500/0501 09006KT 9999 NSW FEW040 QNH2980INS BECMG 0505/0506 13006KT 9999 FEW040 QNH2984INS BECMG 0520/0521 09006KT 9999 VCSH SCT040 QNH2983INS TX34/0421Z TN20/0510Z LAST NO AMDS AFT 0421 NEXT 0509
NOTAMs
Click for the latest NOTAMs
NOTAMs are issued by the DoD/FAA and will open in a separate window not controlled by AirNav.

 

 
 

FBO, Fuel Providers, and Aircraft Ground Support

  
 Business Name 
 
 Contact 
 
 Services / Description 
 
Fuel Prices
 
Comments
  
City of Fayette (FBO) 205-932-3819
no information available

If you are affiliated with City of Fayette (FBO) and would like to show here your services, contact info, web link, logo, and more, click here
100LL Jet A
AS --- $3.74 
SS $5.44 --- 
 Updated 25-May-2023
 
   2 read write
AS=Assisted/Self Service
SS=Self service
Update Fuel Prices
 

Would you like to see your business listed on this page?

 If your business provides an interesting product or service to pilots, flight crews, aircraft, or users of the Richard Arthur Field Airport, you should consider listing it here.  To start the listing process, click on the button below
 
Add a business
 

Other Pages about Richard Arthur Field Airport

Update a link
 
Copyright © AirNav, LLC. All rights reserved. Privacy Policy  Contact